| time (UTC) | temp F | wind direction | speed MPH | gust MPH | rain 1hr in | rain 24hr in | rain mn in | humidity % | barometer mb |
| 20260507043019 | 70 | 19 | 4.0 | 8.0 | 0.00 | 0.00 | 0.00 | 77 | 1013.0 |
| 20260507042518 | 70 | 313 | 4.0 | 10.0 | 0.00 | 0.00 | 0.00 | 77 | 1013.0 |
| 20260507042018 | 70 | 360 | 4.0 | 12.0 | 0.00 | 0.00 | 0.00 | 77 | 1013.0 |
| 20260507041517 | 70 | 331 | 3.0 | 13.0 | 0.00 | 0.00 | 0.00 | 76 | 1012.9 |
| 20260507041016 | 71 | 360 | 5.0 | 11.0 | 0.00 | 0.00 | 0.00 | 76 | 1012.8 |
| 20260507040517 | 71 | 300 | 2.0 | 9.0 | 0.00 | 0.00 | 0.00 | 77 | 1012.8 |
| 20260507040016 | 71 | 32 | 4.0 | 10.0 | 0.00 | 0.00 | 0.00 | 77 | 1013.0 |
| 20260507035514 | 71 | 360 | 4.0 | 10.0 | 0.00 | 0.00 | 0.00 | 76 | 1013.0 |
| 20260507035014 | 71 | 322 | 3.0 | 10.0 | 0.00 | 0.00 | 0.00 | 76 | 1013.1 |
| 20260507034513 | 71 | 11 | 3.0 | 12.0 | 0.00 | 0.00 | 0.00 | 76 | 1012.9 |
| 20260507034011 | 72 | 348 | 4.0 | 12.0 | 0.00 | 0.00 | 0.00 | 76 | 1012.9 |
| 20260507033510 | 72 | 325 | 4.0 | 11.0 | 0.00 | 0.00 | 0.00 | 76 | 1012.8 |
| 20260507033017 | 72 | 5 | 4.0 | 9.0 | 0.00 | 0.00 | 0.00 | 76 | 1012.6 |
| 20260507032509 | 72 | 335 | 4.0 | 13.0 | 0.00 | 0.00 | 0.00 | 76 | 1012.5 |
| 20260507032011 | 72 | 313 | 5.0 | 15.0 | 0.00 | 0.00 | 0.00 | 75 | 1012.4 |
| 20260507031507 | 73 | 329 | 6.0 | 15.0 | 0.00 | 0.00 | 0.00 | 75 | 1012.3 |
| 20260507031008 | 73 | 338 | 5.0 | 13.0 | 0.00 | 0.00 | 0.00 | 76 | 1012.2 |
| 20260507030506 | 73 | 345 | 6.0 | 13.0 | 0.00 | 0.00 | 0.00 | 76 | 1012.0 |
| 20260507030005 | 73 | 355 | 4.0 | 13.0 | 0.00 | 0.00 | 0.00 | 75 | 1011.9 |
| 20260507025503 | 73 | 345 | 6.0 | 13.0 | 0.00 | 0.00 | 0.00 | 76 | 1011.9 |
| 20260507025002 | 73 | 300 | 5.0 | 11.0 | 0.00 | 0.00 | 0.00 | 76 | 1011.8 |
| 20260507024502 | 73 | 22 | 4.0 | 13.0 | 0.00 | 0.00 | 0.00 | 76 | 1011.8 |
| 20260507024059 | 73 | 308 | 5.0 | 13.0 | 0.00 | 0.00 | 0.00 | 76 | 1011.8 |
| 20260507023558 | 74 | 325 | 4.0 | 11.0 | 0.00 | 0.00 | 0.00 | 76 | 1011.7 |
| 20260507023105 | 74 | 263 | 5.0 | 11.0 | 0.00 | 0.00 | 0.00 | 76 | 1011.4 |
| 20260507022556 | 74 | 280 | 4.0 | 10.0 | 0.00 | 0.00 | 0.00 | 76 | 1011.3 |
| 20260507022056 | 74 | 321 | 4.0 | 10.0 | 0.00 | 0.00 | 0.00 | 76 | 1011.2 |
| 20260507021554 | 74 | 302 | 2.0 | 8.0 | 0.00 | 0.00 | 0.00 | 76 | 1011.0 |
| 20260507021057 | 74 | 339 | 2.0 | 11.0 | 0.00 | 0.00 | 0.00 | 76 | 1010.9 |
| 20260507020554 | 74 | 338 | 5.0 | 12.0 | 0.00 | 0.00 | 0.00 | 76 | 1010.9 |
| 20260507020056 | 74 | 355 | 4.0 | 14.0 | 0.00 | 0.00 | 0.00 | 76 | 1010.8 |
| 20260507015553 | 75 | 318 | 4.0 | 14.0 | 0.00 | 0.00 | 0.00 | 75 | 1010.8 |
| 20260507015053 | 75 | 297 | 4.0 | 11.0 | 0.00 | 0.00 | 0.00 | 75 | 1010.8 |
| 20260507014601 | 75 | 315 | 4.0 | 11.0 | 0.00 | 0.00 | 0.00 | 75 | 1010.6 |
| 20260507014052 | 75 | 323 | 5.0 | 11.0 | 0.00 | 0.00 | 0.00 | 75 | 1010.6 |
| 20260507013551 | 75 | 348 | 4.0 | 10.0 | 0.00 | 0.00 | 0.00 | 75 | 1010.5 |
| 20260507013051 | 76 | 319 | 4.0 | 10.0 | 0.00 | 0.00 | 0.00 | 75 | 1010.5 |
| 20260507012551 | 76 | 303 | 4.0 | 10.0 | 0.00 | 0.00 | 0.00 | 75 | 1010.3 |
| 20260507012051 | 76 | 306 | 5.0 | 12.0 | 0.00 | 0.00 | 0.00 | 75 | 1010.2 |
| 20260507011551 | 77 | 5 | 3.0 | 12.0 | 0.00 | 0.00 | 0.00 | 75 | 1010.2 |
| 20260507011049 | 77 | 302 | 5.0 | 12.0 | 0.00 | 0.00 | 0.00 | 75 | 1010.0 |
| 20260507010550 | 77 | 345 | 4.0 | 11.0 | 0.00 | 0.00 | 0.00 | 76 | 1009.9 |
| 20260507010050 | 78 | 281 | 2.0 | 10.0 | 0.00 | 0.00 | 0.00 | 76 | 1009.9 |
| 20260507005550 | 78 | 321 | 5.0 | 10.0 | 0.00 | 0.00 | 0.00 | 75 | 1009.8 |
| 20260507005049 | 78 | 289 | 4.0 | 11.0 | 0.00 | 0.00 | 0.00 | 75 | 1009.8 |
| 20260507004550 | 79 | 317 | 6.0 | 11.0 | 0.00 | 0.00 | 0.00 | 74 | 1009.7 |
| 20260507004048 | 79 | 317 | 3.0 | 13.0 | 0.00 | 0.00 | 0.00 | 74 | 1009.4 |
| 20260507003548 | 80 | 313 | 7.0 | 13.0 | 0.00 | 0.00 | 0.00 | 73 | 1009.3 |
| 20260507003051 | 81 | 320 | 5.0 | 15.0 | 0.00 | 0.00 | 0.00 | 73 | 1009.2 |
| 20260507002548 | 82 | 339 | 6.0 | 15.0 | 0.00 | 0.00 | 0.00 | 73 | 1009.0 |
| 20260507002050 | 83 | 347 | 3.0 | 9.0 | 0.00 | 0.00 | 0.00 | 75 | 1009.0 |
| 20260507001548 | 83 | 161 | 2.0 | 7.0 | 0.00 | 0.00 | 0.00 | 78 | 1008.8 |
| 20260507001047 | 83 | 168 | 2.0 | 7.0 | 0.00 | 0.00 | 0.00 | 79 | 1008.6 |
| 20260507000550 | 83 | 163 | 3.0 | 7.0 | 0.00 | 0.00 | 0.00 | 78 | 1008.6 |
| 20260507000047 | 84 | 142 | 3.0 | 8.0 | 0.00 | 0.00 | 0.00 | 78 | 1008.5 |
| 20260506235547 | 84 | 171 | 3.0 | 8.0 | 0.00 | 0.00 | 0.00 | 76 | 1008.7 |
| 20260506235050 | 85 | 169 | 3.0 | 9.0 | 0.00 | 0.00 | 0.00 | 75 | 1008.6 |
| 20260506234547 | 86 | 158 | 4.0 | 9.0 | 0.00 | 0.00 | 0.00 | 72 | 1008.5 |
| 20260506234047 | 88 | 202 | 0.0 | 3.0 | 0.00 | 0.00 | 0.00 | 68 | 1008.4 |
| 20260506233547 | 88 | 200 | 0.0 | 2.0 | 0.00 | 0.00 | 0.00 | 69 | 1008.4 |
| 20260506233100 | 88 | 200 | 0.0 | 3.0 | 0.00 | 0.00 | 0.00 | 68 | 1008.4 |
| 20260506232546 | 88 | 153 | 0.0 | 3.0 | 0.00 | 0.00 | 0.00 | 68 | 1008.3 |
| 20260506232046 | 88 | 153 | 0.0 | 3.0 | 0.00 | 0.00 | 0.00 | 69 | 1008.2 |
| 20260506231546 | 88 | 205 | 0.0 | 5.0 | 0.00 | 0.00 | 0.00 | 68 | 1008.3 |
| 20260506231046 | 88 | 205 | 1.0 | 5.0 | 0.00 | 0.00 | 0.00 | 68 | 1008.2 |
| 20260506230545 | 88 | 152 | 2.0 | 6.0 | 0.00 | 0.00 | 0.00 | 68 | 1008.2 |
| 20260506230046 | 88 | 141 | 1.0 | 6.0 | 0.00 | 0.00 | 0.00 | 67 | 1008.1 |
| 20260506225545 | 88 | 166 | 1.0 | 5.0 | 0.00 | 0.00 | 0.00 | 66 | 1008.1 |
| 20260506225045 | 89 | 154 | 1.0 | 5.0 | 0.00 | 0.00 | 0.00 | 66 | 1008.2 |
| 20260506224545 | 89 | 154 | 1.0 | 5.0 | 0.00 | 0.00 | 0.00 | 65 | 1008.1 |
| 20260506224044 | 89 | 154 | 2.0 | 5.0 | 0.00 | 0.00 | 0.00 | 65 | 1008.2 |
| 20260506223546 | 89 | 188 | 1.0 | 4.0 | 0.00 | 0.00 | 0.00 | 65 | 1008.2 |
| 20260506223046 | 89 | 202 | 1.0 | 4.0 | 0.00 | 0.00 | 0.00 | 65 | 1008.2 |
| 20260506222544 | 89 | 202 | 0.0 | 4.0 | 0.00 | 0.00 | 0.00 | 66 | 1008.1 |
| 20260506222043 | 89 | 202 | 1.0 | 4.0 | 0.00 | 0.00 | 0.00 | 66 | 1008.1 |
| 20260506221543 | 89 | 160 | 2.0 | 5.0 | 0.00 | 0.00 | 0.00 | 66 | 1008.1 |
| 20260506221041 | 89 | 273 | 0.0 | 7.0 | 0.00 | 0.00 | 0.00 | 66 | 1008.0 |
| 20260506220542 | 88 | 273 | 1.0 | 7.0 | 0.00 | 0.00 | 0.00 | 66 | 1007.9 |
| 20260506220042 | 88 | 167 | 1.0 | 7.0 | 0.00 | 0.00 | 0.00 | 67 | 1008.0 |
| 20260506215544 | 88 | 162 | 0.0 | 7.0 | 0.00 | 0.00 | 0.00 | 69 | 1007.9 |
| 20260506215042 | 88 | 163 | 2.0 | 9.0 | 0.00 | 0.00 | 0.00 | 68 | 1008.0 |
| 20260506214541 | 87 | 163 | 4.0 | 8.0 | 0.00 | 0.00 | 0.00 | 68 | 1008.1 |
| 20260506214039 | 88 | 144 | 1.0 | 8.0 | 0.00 | 0.00 | 0.00 | 69 | 1008.0 |
| 20260506213539 | 87 | 165 | 3.0 | 10.0 | 0.00 | 0.00 | 0.00 | 68 | 1008.0 |
| 20260506213042 | 87 | 171 | 2.0 | 10.0 | 0.00 | 0.00 | 0.00 | 69 | 1008.0 |
| 20260506212539 | 88 | 166 | 4.0 | 9.0 | 0.00 | 0.00 | 0.00 | 68 | 1007.9 |
| 20260506212039 | 88 | 121 | 4.0 | 8.0 | 0.00 | 0.00 | 0.00 | 68 | 1008.0 |
| 20260506211538 | 89 | 207 | 1.0 | 8.0 | 0.00 | 0.00 | 0.00 | 67 | 1008.1 |
| 20260506211038 | 88 | 131 | 0.0 | 9.0 | 0.00 | 0.00 | 0.00 | 68 | 1008.1 |
| 20260506210536 | 88 | 202 | 2.0 | 9.0 | 0.00 | 0.00 | 0.00 | 67 | 1008.2 |
| 20260506210035 | 88 | 220 | 2.0 | 8.0 | 0.00 | 0.00 | 0.00 | 69 | 1008.3 |
| 20260506205541 | 88 | 207 | 3.0 | 8.0 | 0.00 | 0.00 | 0.00 | 69 | 1008.4 |
| 20260506205037 | 87 | 159 | 2.0 | 8.0 | 0.00 | 0.00 | 0.00 | 71 | 1008.4 |
| 20260506204538 | 86 | 183 | 3.0 | 10.0 | 0.00 | 0.00 | 0.00 | 71 | 1008.4 |
| 20260506204036 | 86 | 159 | 5.0 | 10.0 | 0.00 | 0.00 | 0.00 | 72 | 1008.5 |
| 20260506203534 | 87 | 154 | 4.0 | 9.0 | 0.00 | 0.00 | 0.00 | 69 | 1008.6 |
| 20260506203036 | 87 | 189 | 2.0 | 9.0 | 0.00 | 0.00 | 0.00 | 70 | 1008.6 |
| 20260506202535 | 87 | 169 | 3.0 | 12.0 | 0.00 | 0.00 | 0.00 | 71 | 1008.7 |
| 20260506202034 | 86 | 150 | 2.0 | 12.0 | 0.00 | 0.00 | 0.00 | 71 | 1008.7 |
| 20260506201533 | 86 | 170 | 3.0 | 11.0 | 0.00 | 0.00 | 0.00 | 72 | 1008.6 |
| 20260506201034 | 85 | 174 | 3.0 | 9.0 | 0.00 | 0.00 | 0.00 | 73 | 1008.7 |
| 20260506200533 | 86 | 203 | 3.0 | 10.0 | 0.00 | 0.00 | 0.00 | 72 | 1008.7 |
| 20260506200033 | 86 | 146 | 5.0 | 11.0 | 0.00 | 0.00 | 0.00 | 70 | 1008.7 |
| 20260506195533 | 87 | 184 | 4.0 | 11.0 | 0.00 | 0.00 | 0.00 | 70 | 1008.7 |
| 20260506195037 | 87 | 206 | 3.0 | 8.0 | 0.00 | 0.00 | 0.00 | 69 | 1008.7 |
| 20260506194536 | 88 | 193 | 2.0 | 8.0 | 0.00 | 0.00 | 0.00 | 68 | 1008.8 |
| 20260506194031 | 88 | 148 | 2.0 | 10.0 | 0.00 | 0.00 | 0.00 | 69 | 1008.9 |
| 20260506193529 | 88 | 169 | 4.0 | 10.0 | 0.00 | 0.00 | 0.00 | 68 | 1008.9 |
| 20260506193031 | 87 | 174 | 4.0 | 10.0 | 0.00 | 0.00 | 0.00 | 70 | 1008.9 |
| 20260506192531 | 87 | 164 | 5.0 | 10.0 | 0.00 | 0.00 | 0.00 | 70 | 1008.9 |
| 20260506192027 | 87 | 173 | 4.0 | 10.0 | 0.00 | 0.00 | 0.00 | 70 | 1009.1 |
| 20260506191526 | 86 | 163 | 2.0 | 10.0 | 0.00 | 0.00 | 0.00 | 72 | 1009.1 |
| 20260506191027 | 86 | 165 | 6.0 | 10.0 | 0.00 | 0.00 | 0.00 | 71 | 1009.2 |
| 20260506190525 | 86 | 173 | 4.0 | 9.0 | 0.00 | 0.00 | 0.00 | 71 | 1009.2 |
| 20260506190025 | 86 | 156 | 4.0 | 10.0 | 0.00 | 0.00 | 0.00 | 72 | 1009.3 |
| 20260506185524 | 85 | 172 | 4.0 | 10.0 | 0.00 | 0.00 | 0.00 | 73 | 1009.4 |
| 20260506185022 | 85 | 175 | 1.0 | 8.0 | 0.00 | 0.00 | 0.00 | 74 | 1009.4 |
| 20260506184522 | 84 | 203 | 4.0 | 9.0 | 0.00 | 0.00 | 0.00 | 75 | 1009.5 |
| 20260506184023 | 84 | 171 | 4.0 | 8.0 | 0.00 | 0.00 | 0.00 | 75 | 1009.6 |
| 20260506183521 | 84 | 167 | 4.0 | 8.0 | 0.00 | 0.00 | 0.00 | 74 | 1009.6 |
| 20260506183021 | 85 | 189 | 3.0 | 10.0 | 0.00 | 0.00 | 0.00 | 74 | 1009.6 |
| 20260506182520 | 84 | 180 | 4.0 | 9.0 | 0.00 | 0.00 | 0.00 | 74 | 1009.7 |
| 20260506182022 | 85 | 142 | 4.0 | 8.0 | 0.00 | 0.00 | 0.00 | 74 | 1009.8 |
| 20260506181520 | 84 | 133 | 0.0 | 6.0 | 0.00 | 0.00 | 0.00 | 75 | 1009.9 |
| 20260506181020 | 84 | 150 | 2.0 | 6.0 | 0.00 | 0.00 | 0.00 | 75 | 1010.1 |
| 20260506180519 | 84 | 165 | 3.0 | 6.0 | 0.00 | 0.00 | 0.00 | 74 | 1010.1 |
| 20260506180017 | 83 | 164 | 2.0 | 5.0 | 0.00 | 0.00 | 0.00 | 78 | 1010.2 |
| 20260506175517 | 83 | 123 | 3.0 | 7.0 | 0.00 | 0.00 | 0.00 | 78 | 1010.4 |
| 20260506175019 | 83 | 175 | 2.0 | 7.0 | 0.00 | 0.00 | 0.00 | 78 | 1010.5 |
| 20260506174517 | 83 | 155 | 2.0 | 6.0 | 0.00 | 0.00 | 0.00 | 78 | 1010.5 |
| 20260506174016 | 83 | 164 | 2.0 | 5.0 | 0.00 | 0.00 | 0.00 | 77 | 1010.6 |
| 20260506173516 | 83 | 240 | 1.0 | 6.0 | 0.00 | 0.00 | 0.00 | 78 | 1010.8 |
| 20260506173016 | 83 | 150 | 3.0 | 5.0 | 0.00 | 0.00 | 0.00 | 77 | 1010.8 |
| 20260506172515 | 83 | 205 | 1.0 | 6.0 | 0.00 | 0.00 | 0.00 | 78 | 1010.9 |
| 20260506172015 | 83 | 168 | 2.0 | 7.0 | 0.00 | 0.00 | 0.00 | 78 | 1010.7 |
| 20260506171515 | 83 | 169 | 4.0 | 8.0 | 0.00 | 0.00 | 0.00 | 78 | 1010.8 |
| 20260506171014 | 83 | 186 | 2.0 | 8.0 | 0.00 | 0.00 | 0.00 | 78 | 1010.9 |
| 20260506170512 | 82 | 159 | 2.0 | 7.0 | 0.00 | 0.00 | 0.00 | 81 | 1010.9 |
| 20260506170011 | 81 | 163 | 3.0 | 7.0 | 0.00 | 0.00 | 0.00 | 82 | 1010.9 |
| 20260506165509 | 80 | 153 | 4.0 | 8.0 | 0.00 | 0.00 | 0.00 | 83 | 1010.9 |
| 20260506165008 | 79 | 167 | 2.0 | 7.0 | 0.00 | 0.00 | 0.00 | 85 | 1010.9 |
| 20260506164508 | 79 | 157 | 3.0 | 7.0 | 0.00 | 0.00 | 0.00 | 85 | 1011.0 |
| 20260506164008 | 79 | 155 | 3.0 | 6.0 | 0.00 | 0.00 | 0.00 | 85 | 1010.9 |
| 20260506163507 | 79 | 171 | 2.0 | 6.0 | 0.00 | 0.00 | 0.00 | 86 | 1011.0 |
| 20260506163019 | 78 | 136 | 1.0 | 7.0 | 0.00 | 0.00 | 0.00 | 86 | 1010.9 |
| 20260506162508 | 78 | 158 | 2.0 | 6.0 | 0.00 | 0.00 | 0.00 | 86 | 1010.8 |
| 20260506162005 | 78 | 164 | 2.0 | 6.0 | 0.00 | 0.00 | 0.00 | 86 | 1010.7 |
| 20260506161506 | 79 | 163 | 3.0 | 6.0 | 0.00 | 0.00 | 0.00 | 86 | 1010.6 |
| 20260506161004 | 79 | 171 | 1.0 | 5.0 | 0.00 | 0.00 | 0.00 | 86 | 1010.6 |
| 20260506160510 | 79 | 152 | 1.0 | 6.0 | 0.00 | 0.00 | 0.00 | 85 | 1010.6 |
| 20260506160011 | 79 | 149 | 3.0 | 6.0 | 0.00 | 0.00 | 0.00 | 84 | 1010.5 |
| 20260506155503 | 79 | 167 | 3.0 | 6.0 | 0.00 | 0.00 | 0.00 | 83 | 1010.4 |
| 20260506155005 | 79 | 187 | 3.0 | 5.0 | 0.00 | 0.00 | 0.00 | 83 | 1010.4 |
| 20260506154503 | 80 | 165 | 3.0 | 6.0 | 0.00 | 0.00 | 0.00 | 83 | 1010.4 |
| 20260506154005 | 80 | 136 | 1.0 | 5.0 | 0.00 | 0.00 | 0.00 | 83 | 1010.5 |
| 20260506153502 | 79 | 175 | 1.0 | 6.0 | 0.00 | 0.00 | 0.00 | 83 | 1010.5 |
| 20260506153115 | 79 | 170 | 3.0 | 6.0 | 0.00 | 0.00 | 0.00 | 83 | 1010.4 |
| 20260506152559 | 79 | 163 | 1.0 | 5.0 | 0.00 | 0.00 | 0.00 | 83 | 1010.4 |
| 20260506152100 | 79 | 155 | 2.0 | 5.0 | 0.00 | 0.00 | 0.00 | 83 | 1010.2 |
| 20260506151559 | 79 | 162 | 2.0 | 5.0 | 0.00 | 0.00 | 0.00 | 84 | 1010.1 |
| 20260506151056 | 79 | 161 | 2.0 | 5.0 | 0.00 | 0.00 | 0.00 | 84 | 1009.9 |
| 20260506150556 | 79 | 153 | 0.0 | 9.0 | 0.00 | 0.00 | 0.00 | 84 | 1009.9 |
| 20260506150056 | 79 | 169 | 5.0 | 9.0 | 0.00 | 0.00 | 0.00 | 84 | 1009.9 |
| 20260506145555 | 79 | 185 | 3.0 | 7.0 | 0.00 | 0.00 | 0.00 | 84 | 1009.9 |
| 20260506145054 | 79 | 166 | 2.0 | 7.0 | 0.00 | 0.00 | 0.00 | 84 | 1009.9 |
| 20260506144555 | 79 | 149 | 3.0 | 8.0 | 0.00 | 0.00 | 0.00 | 84 | 1009.7 |
| 20260506144053 | 79 | 123 | 4.0 | 8.0 | 0.00 | 0.00 | 0.00 | 85 | 1009.6 |
| 20260506143552 | 79 | 163 | 0.0 | 7.0 | 0.00 | 0.00 | 0.00 | 86 | 1009.5 |
| 20260506143103 | 78 | 159 | 2.0 | 7.0 | 0.00 | 0.00 | 0.00 | 87 | 1009.4 |
| 20260506142550 | 78 | 161 | 2.0 | 7.0 | 0.00 | 0.00 | 0.00 | 87 | 1009.4 |
| 20260506142050 | 78 | 172 | 4.0 | 8.0 | 0.00 | 0.00 | 0.00 | 87 | 1009.3 |
| 20260506141550 | 78 | 137 | 4.0 | 8.0 | 0.00 | 0.00 | 0.00 | 87 | 1009.5 |
| 20260506141053 | 78 | 145 | 2.0 | 8.0 | 0.00 | 0.00 | 0.00 | 88 | 1009.5 |
| 20260506140548 | 77 | 149 | 2.0 | 9.0 | 0.00 | 0.00 | 0.00 | 89 | 1009.6 |
| 20260506140047 | 77 | 124 | 3.0 | 9.0 | 0.00 | 0.00 | 0.00 | 89 | 1009.6 |
| 20260506135546 | 77 | 141 | 3.0 | 6.0 | 0.00 | 0.00 | 0.00 | 91 | 1009.6 |
| 20260506135045 | 76 | 160 | 2.0 | 6.0 | 0.00 | 0.00 | 0.00 | 91 | 1009.6 |
| 20260506134544 | 76 | 164 | 2.0 | 6.0 | 0.00 | 0.00 | 0.00 | 91 | 1009.6 |
| 20260506134044 | 76 | 164 | 2.0 | 6.0 | 0.00 | 0.00 | 0.00 | 92 | 1009.6 |
| 20260506133543 | 76 | 150 | 1.0 | 5.0 | 0.00 | 0.00 | 0.00 | 92 | 1009.6 |
| 20260506133042 | 75 | 157 | 2.0 | 5.0 | 0.00 | 0.00 | 0.00 | 92 | 1009.7 |
| 20260506132543 | 75 | 164 | 1.0 | 5.0 | 0.00 | 0.00 | 0.00 | 93 | 1009.7 |
| 20260506132042 | 75 | 164 | 1.0 | 3.0 | 0.00 | 0.00 | 0.00 | 93 | 1009.9 |
| 20260506131542 | 75 | 164 | 0.0 | 3.0 | 0.00 | 0.00 | 0.00 | 93 | 1009.8 |
| 20260506131042 | 75 | 164 | 1.0 | 4.0 | 0.00 | 0.00 | 0.00 | 93 | 1009.8 |
| 20260506130542 | 75 | 164 | 1.0 | 4.0 | 0.00 | 0.00 | 0.00 | 93 | 1009.8 |
| 20260506130041 | 75 | 164 | 1.0 | 3.0 | 0.00 | 0.00 | 0.00 | 93 | 1009.8 |
| 20260506125544 | 74 | 164 | 1.0 | 4.0 | 0.00 | 0.00 | 0.00 | 93 | 1009.9 |
| 20260506125045 | 74 | 164 | 1.0 | 5.0 | 0.00 | 0.00 | 0.00 | 93 | 1009.9 |
| 20260506124540 | 74 | 164 | 1.0 | 5.0 | 0.00 | 0.00 | 0.00 | 93 | 1009.9 |
| 20260506124040 | 74 | 164 | 1.0 | 3.0 | 0.00 | 0.00 | 0.00 | 93 | 1009.8 |
| 20260506123540 | 74 | 164 | 1.0 | 2.0 | 0.00 | 0.00 | 0.00 | 93 | 1009.8 |
| 20260506123040 | 74 | 164 | 0.0 | 3.0 | 0.00 | 0.00 | 0.00 | 93 | 1009.8 |
| 20260506122538 | 74 | 164 | 0.0 | 3.0 | 0.00 | 0.00 | 0.00 | 93 | 1009.7 |
| 20260506122038 | 74 | 164 | 0.0 | 3.0 | 0.00 | 0.00 | 0.00 | 93 | 1009.6 |
| 20260506121542 | 74 | 164 | 1.0 | 3.0 | 0.00 | 0.00 | 0.00 | 93 | 1009.5 |
| 20260506121038 | 74 | 164 | 0.0 | 2.0 | 0.00 | 0.00 | 0.00 | 93 | 1009.5 |
| 20260506120538 | 74 | 164 | 0.0 | 2.0 | 0.00 | 0.00 | 0.00 | 93 | 1009.4 |
| 20260506120038 | 74 | 164 | 0.0 | 1.0 | 0.00 | 0.00 | 0.00 | 93 | 1009.4 |
| 20260506115537 | 73 | 164 | 0.0 | 1.0 | 0.00 | 0.00 | 0.00 | 93 | 1009.3 |
| 20260506115036 | 73 | 164 | 0.0 | 1.0 | 0.00 | 0.00 | 0.00 | 93 | 1009.3 |
| 20260506114544 | 73 | 164 | 0.0 | 2.0 | 0.00 | 0.00 | 0.00 | 93 | 1009.2 |
| 20260506114036 | 74 | 164 | 0.0 | 3.0 | 0.00 | 0.00 | 0.00 | 93 | 1009.1 |
| 20260506113539 | 73 | 164 | 0.0 | 3.0 | 0.00 | 0.00 | 0.00 | 93 | 1009.0 |
| 20260506113036 | 74 | 164 | 0.0 | 2.0 | 0.00 | 0.00 | 0.00 | 93 | 1009.1 |
| 20260506112536 | 73 | 164 | 0.0 | 6.0 | 0.00 | 0.00 | 0.00 | 93 | 1009.0 |
| 20260506112037 | 74 | 164 | 1.0 | 6.0 | 0.00 | 0.00 | 0.00 | 93 | 1008.9 |
| 20260506111539 | 74 | 164 | 1.0 | 5.0 | 0.00 | 0.00 | 0.00 | 93 | 1008.8 |
| 20260506111035 | 74 | 161 | 1.0 | 5.0 | 0.00 | 0.00 | 0.00 | 93 | 1008.8 |
| 20260506110535 | 74 | 162 | 1.0 | 5.0 | 0.00 | 0.00 | 0.00 | 92 | 1008.8 |
| 20260506110035 | 74 | 188 | 2.0 | 4.0 | 0.00 | 0.00 | 0.00 | 92 | 1008.7 |
| 20260506105534 | 74 | 188 | 1.0 | 5.0 | 0.00 | 0.00 | 0.00 | 92 | 1008.6 |
| 20260506105033 | 74 | 188 | 2.0 | 5.0 | 0.00 | 0.00 | 0.00 | 92 | 1008.6 |
| 20260506104534 | 74 | 188 | 1.0 | 4.0 | 0.00 | 0.00 | 0.00 | 92 | 1008.6 |
| 20260506104033 | 74 | 188 | 0.0 | 4.0 | 0.00 | 0.00 | 0.00 | 92 | 1008.6 |
| 20260506103533 | 74 | 188 | 1.0 | 4.0 | 0.00 | 0.00 | 0.00 | 92 | 1008.6 |
| 20260506103032 | 74 | 188 | 0.0 | 2.0 | 0.00 | 0.00 | 0.00 | 92 | 1008.6 |
| 20260506102532 | 74 | 188 | 1.0 | 3.0 | 0.00 | 0.00 | 0.00 | 92 | 1008.7 |
| 20260506102031 | 74 | 188 | 1.0 | 4.0 | 0.00 | 0.00 | 0.00 | 91 | 1008.7 |
| 20260506101533 | 74 | 188 | 1.0 | 6.0 | 0.00 | 0.00 | 0.00 | 91 | 1008.7 |
| 20260506101030 | 74 | 190 | 3.0 | 7.0 | 0.00 | 0.00 | 0.00 | 91 | 1008.5 |
| 20260506100532 | 74 | 181 | 4.0 | 7.0 | 0.00 | 0.00 | 0.00 | 91 | 1008.5 |
| 20260506100030 | 74 | 176 | 2.0 | 5.0 | 0.00 | 0.00 | 0.00 | 91 | 1008.5 |
| 20260506095530 | 74 | 200 | 1.0 | 5.0 | 0.00 | 0.00 | 0.00 | 91 | 1008.5 |
| 20260506095029 | 74 | 138 | 2.0 | 6.0 | 0.00 | 0.00 | 0.00 | 91 | 1008.4 |
| 20260506094530 | 74 | 189 | 3.0 | 6.0 | 0.00 | 0.00 | 0.00 | 91 | 1008.4 |
| 20260506094028 | 74 | 169 | 3.0 | 5.0 | 0.00 | 0.00 | 0.00 | 91 | 1008.3 |
| 20260506093532 | 75 | 178 | 2.0 | 9.0 | 0.00 | 0.00 | 0.00 | 91 | 1008.3 |
| 20260506093030 | 75 | 171 | 4.0 | 9.0 | 0.00 | 0.00 | 0.00 | 90 | 1008.2 |
| 20260506092527 | 75 | 169 | 2.0 | 6.0 | 0.00 | 0.00 | 0.00 | 90 | 1008.3 |
| 20260506092026 | 75 | 184 | 2.0 | 7.0 | 0.00 | 0.00 | 0.00 | 90 | 1008.3 |
| 20260506091527 | 75 | 179 | 3.0 | 7.0 | 0.00 | 0.00 | 0.00 | 90 | 1008.3 |
| 20260506091024 | 75 | 173 | 2.0 | 7.0 | 0.00 | 0.00 | 0.00 | 90 | 1008.4 |
| 20260506090524 | 75 | 139 | 3.0 | 6.0 | 0.00 | 0.00 | 0.00 | 90 | 1008.5 |
| 20260506090023 | 75 | 148 | 2.0 | 6.0 | 0.00 | 0.00 | 0.00 | 90 | 1008.5 |
| 20260506085523 | 75 | 155 | 2.0 | 6.0 | 0.00 | 0.00 | 0.00 | 90 | 1008.6 |
| 20260506085023 | 75 | 177 | 2.0 | 6.0 | 0.00 | 0.00 | 0.00 | 90 | 1008.6 |
| 20260506084523 | 75 | 161 | 2.0 | 6.0 | 0.00 | 0.00 | 0.00 | 90 | 1008.5 |
| 20260506084022 | 75 | 160 | 4.0 | 6.0 | 0.00 | 0.00 | 0.00 | 90 | 1008.5 |
| 20260506083522 | 75 | 161 | 4.0 | 6.0 | 0.00 | 0.00 | 0.00 | 90 | 1008.6 |
| 20260506083022 | 75 | 161 | 2.0 | 6.0 | 0.00 | 0.00 | 0.00 | 90 | 1008.7 |
| 20260506082521 | 75 | 159 | 2.0 | 6.0 | 0.00 | 0.00 | 0.00 | 90 | 1008.6 |
| 20260506082020 | 75 | 158 | 2.0 | 7.0 | 0.00 | 0.00 | 0.00 | 90 | 1008.7 |
| 20260506081521 | 75 | 158 | 2.0 | 7.0 | 0.00 | 0.00 | 0.00 | 90 | 1008.7 |
| 20260506081020 | 75 | 192 | 3.0 | 7.0 | 0.00 | 0.00 | 0.00 | 90 | 1008.7 |
| 20260506080520 | 75 | 155 | 2.0 | 7.0 | 0.00 | 0.00 | 0.00 | 90 | 1008.7 |
| 20260506073519 | 75 | 150 | 2.0 | 8.0 | 0.00 | 0.00 | 0.00 | 90 | 1009.0 |
| 20260506073016 | 75 | 184 | 2.0 | 6.0 | 0.00 | 0.00 | 0.00 | 90 | 1009.1 |
| 20260506072516 | 75 | 171 | 2.0 | 7.0 | 0.00 | 0.00 | 0.00 | 90 | 1009.2 |
| 20260506072017 | 75 | 161 | 3.0 | 7.0 | 0.00 | 0.00 | 0.00 | 90 | 1009.0 |
| 20260506071514 | 75 | 145 | 2.0 | 6.0 | 0.00 | 0.00 | 0.00 | 90 | 1009.1 |
| 20260506071017 | 75 | 150 | 2.0 | 6.0 | 0.00 | 0.00 | 0.00 | 90 | 1009.2 |
| 20260506070514 | 75 | 158 | 3.0 | 7.0 | 0.00 | 0.00 | 0.00 | 90 | 1009.2 |
| 20260506062516 | 75 | 150 | 2.0 | 5.0 | 0.00 | 0.00 | 0.00 | 90 | 1009.4 |
| 20260506062012 | 75 | 161 | 3.0 | 5.0 | 0.00 | 0.00 | 0.00 | 90 | 1009.5 |
| 20260506061516 | 75 | 123 | 2.0 | 5.0 | 0.00 | 0.00 | 0.00 | 90 | 1009.6 |
| 20260506061011 | 75 | 168 | 2.0 | 6.0 | 0.00 | 0.00 | 0.00 | 90 | 1009.6 |
| 20260506060511 | 75 | 126 | 1.0 | 6.0 | 0.00 | 0.00 | 0.00 | 90 | 1009.6 |
| 20260506051006 | 76 | 175 | 2.0 | 7.0 | 0.00 | 0.00 | 0.00 | 89 | 1009.5 |
| 20260506050508 | 76 | 170 | 3.0 | 7.0 | 0.00 | 0.00 | 0.00 | 88 | 1009.4 |
| 20260506045005 | 76 | 142 | 2.0 | 6.0 | 0.00 | 0.00 | 0.00 | 87 | 1009.5 |
| 20260506044505 | 76 | 163 | 1.0 | 5.0 | 0.00 | 0.00 | 0.00 | 87 | 1009.5 |
| 20260506044003 | 76 | 163 | 1.0 | 6.0 | 0.00 | 0.00 | 0.00 | 87 | 1009.6 |
| 20260506043504 | 76 | 162 | 3.0 | 6.0 | 0.00 | 0.00 | 0.00 | 87 | 1009.6 |